"Pseudo-MPEC" for P20ODuY

Created 2019 Jun 17 11:08:01 UT using Find_Orb

Click here for an explanation of pseudo-MPECs

 
 Astrometry: 
     P20ODuY  C2019 05 31VSsvqNRq$UfWPD=NAdSSPlYHdtMIexZ?q0jya#r'4K+QGpIISl]UF52
     P20ODuY  C2019 05 310W)4B'H;RX+,NGcNx#).!SW!#eG:@2qIFmPn/]niT;RUD*Xx4fygF52
     P20ODuY  C2019 06 02wDb!8)3/,3#7'2t-Zcvoq@)rhoq/FKTcLFF:VRM3i/ycY2Uv)OP2F52
     P20ODuY  C2019 06 02G[rM\C[EJ(kd^Ckqgp*q)1)_a3h7yjU5b(K,dpVl;t*8eU%f%0].F52
     P20ODuY  C2019 06 02u@m\S6s-NvB0GNt=^@2XJJx%**nU9iu`K)Px6Vfy63'e*f+x0@P5F52
     P20ODuY  C2019 06 05JntrI3aEMfN$ZD*35=oTG59=gI79b234\v[M/Q[MfAstrometryYF52
     P20ODuY  C2019 06 051SHNHO7pF%s]C2y/E4kydLM5$;DuMxwUT^8J*qCB:0A#//o/su\eF52
     P20ODuY  C2019 06 05:;'9j/7hkBW]FaTi]Hy%Lc4urbJTb5HWqaHZRjxxfU[2qjU.l/grF52
     P20ODuY  C2019 06 07.19642317 04 54.09 +32 52 40.8    ~67Bb 19.01gUNEOCPI41
     P20ODuY  C2019 06 07.19677017 04 53.63 +32 52 50.5    ~67Bb 19.01gUNEOCPI41
     P20ODuY  C2019 06 07.29561917 02 21.71 +33 40 54.2    ~67Bb 18.41RUNEOCPI41
     P20ODuY  C2019 06 07.29596617 02 21.03 +33 41 05.0    ~67Bb 18.41RUNEOCPI41
     P20ODuY  C2019 06 07.41395 16 58 31.24 +34 41 59.7    ~67Bb       VNEOCPI52
     P20ODuY  C2019 06 07.41407 16 58 31.01 +34 42 03.1    ~67Bb 17.5 GVNEOCPI52
     P20ODuY  C2019 06 07.41420 16 58 30.74 +34 42 07.2    ~67Bb 18.1 GVNEOCPI52
     P20ODuY  C2019 06 07.41433 16 58 30.51 +34 42 11.6    ~67Bb 17.8 GVNEOCPI52
     P20ODuY  C2019 06 07.44875 16 57 22.19 +35 00 44.3    ~67Bb 18.2 GVNEOCPI52
     P20ODuY  C2019 06 07.44888 16 57 21.93 +35 00 48.6    ~67Bb 18.0 GVNEOCPI52
     P20ODuY  C2019 06 07.44900 16 57 21.67 +35 00 52.6    ~67Bb 17.8 GVNEOCPI52
     P20ODuY  C2019 06 07.44913 16 57 21.40 +35 00 56.7    ~67Bb 18.0 GVNEOCPI52
     P20ODuY KC2019 06 07rVGjrxaF7X.9l:)k8It[K7Z0FG]r#*bA`!`mPH,Ccjh!9hOunmf(L34
     P20ODuY KC2019 06 07XfOo^-yF(V`*NFQ$I]G2M5gAX=pLd\Tv]k`jE`MUF1)Fb-oEU[MD104
     P20ODuY KC2019 06 07IHf(*T6'VtLKkZcKrdZ-k$V9[v1c'ebANh7F:m8Non8q3=CQwQvU104
     P20ODuY KC2019 06 07a56^FTeeT',\oC(c6t8_i*0VG.ax9]-LD8rxW],^Ch.@JK0EcI4GK88
     P20ODuY KC2019 06 07YDHA+ZB.5n,Mf^+#jC2Q@\#*[@SIBfmj.REBtS1h9_.wDeggeS?_104
     P20ODuY KC2019 06 07ivCKvt8=B]%t(!I537NLKpel]+yVDhRhmIBa[dx`8b;;O-C!-nqLK88
     P20ODuY KC2019 06 07`.W_e(qredacted;DOtbq6D54^(;C0)PT*7!d=duVOQ^Ohu8_16u104
     P20ODuY KC2019 06 07ENW:)%2+Y=v5r`R\6/eAG@qi;cOy$%M[@0[EC@X`=m2WIGc4id.:K88
     P20ODuY KC2019 06 07TI#)Oa/)BO:WN]x,w;ScLS2t!=[/W53Zr6YK?!3XNp04G%h1RAw8L34
     P20ODuY KC2019 06 07xCs..uZZ7p9ci:c#LlM7uH`Hj]N\\qUDq=?+QVUjsE^]Hd)u!cJ2958
     P20ODuY KC2019 06 070fHo8*fG(^!Co1y_+DwBFaKAc4F[V!V$pnb];DuYE(W=A;^a/]Cw958
     P20ODuY KC2019 06 07)$x9YTrP#ZgYbR$ZZ5RQmt5Ux8wPAU(45\,?9A,XHdX(xHZTy(Oi958
     P20ODuY KC2019 06 07.90049 16 40 27.84 +41 39 37.7    ~67MM 17.8 VqNEOCPI93
     P20ODuY KC2019 06 07])AO'qJ\y^q6k6O2vafD%D'$la2FiaiE0U\%b5d4K/$UuUpayv+T958
     P20ODuY KC2019 06 07RBfReclick(AF'Q!-g[I#y](.]]q.Dp*)Q8[MX38`.8g`:NMOx*(L01
     P20ODuY  C2019 06 07[36QJMHXqs$T6Q3#CM2\oLPCSYA^aWqQ.A$1Tu^pOb%emlC6?UL4L01
     P20ODuY KC2019 06 07.90485 16 40 06.75 +41 45 33.1    ~67MM 17.8 VqNEOCPI93
     P20ODuY  C2019 06 07'V245-rvdiMMeQ8?v5V^:u+,AMHn.$ZC:h;j,_3JIKC*GX`_M5j3L01
     P20ODuY  C2019 06 07Tfm'h6lv3`dNQqgI*kLV4VWGpqN,;;`[/AIK1pGD0fMa]:dA`7QtL01
     P20ODuY  C2019 06 07mcudZIJO?01N+4S=^T;oth0W]uSw2*qYmGw'pG151B==0J4oY)SrL01
     P20ODuY  C2019 06 07Ne/I`51IJXQOHb3^6*I`rsH6Mtdherel]h0C#fT6g'B)^4wJ!FesL01
     P20ODuY KC2019 06 07r8u.eILW,:A)rb8Rx%YtuYc3Vh4V--NE]6e,vm1rP]Zh52GI-ve@L01
     P20ODuY KC2019 06 07.90995 16 39 41.67 +41 52 32.1    ~67MM 17.6 VqNEOCPI93
     P20ODuY KC2019 06 07:RP(f,iN441$yq@PdQH;4(]$:_M!5lAOEq11W9ki$ohvj:A@U0Hm595
     P20ODuY KC2019 06 074=RagS`qx1\di]WZL6*n2tgLo-\%0O9M[TEHb+s`=V$,m\@sr$A^595
     P20ODuY KC2019 06 07x.dHpMZOA-0uR3]8`x/Vo/l5\n$l2A:\ABKc#580HP/N1%*iwoK;595
     P20ODuY KC2019 06 07cOr0m$x4o9crO\w,^`ZIf)for/oSZ1p0]ZLP_$_sX#F-Y\^euEyDL34
     P20ODuY KC2019 06 07.98709016 32 11.02 +43 45 33.4    ~68Eq 17.7 GVNEOCPC95
     P20ODuY KC2019 06 07.99212716 31 38.65 +43 53 21.3    ~68Eq 17.7 GVNEOCPC95
     P20ODuY KC2019 06 07.99716416 31 05.72 +44 01 11.8    ~68Eq 17.8 GVNEOCPC95
     P20ODuY KC2019 06 08e=Nt3[TxQ[2DeKI)dexplanationvaAvnYS?TRx=6kI;y!Gr6Y!^H21
     P20ODuY KC2019 06 08e*lD8:xqGrKy6$p^aOT;*!3@4)AroLNerr#fKO4CT332^:qyCK:NH21
     P20ODuY KC2019 06 08'n:162Z:EhgT8QB[,VHnbim,nb4ti(4r4h;YV(6etg-/M=Wl1t[%H21
     P20ODuY KC2019 06 08*gn$0vmeImy7b3HDI3jt'8_0#YE\9)#a.4]Uy`Rx?ech3\YacQyaH21
     P20ODuY KC2019 06 08W5`9(D=i,Q'a*gc\?(?Fj,(#nETGHo$70@T[/`f6Gp$d,CG.=mSIH21
     P20ODuY KC2019 06 08OVqN1?PZChj;bDPq^b_ffJscK[Z4*Gk!OVtZjrH[3dY[4C#!c'N'H21
     P20ODuY  C2019 06 08.23987315 56 26.84 +52 43 41.9    ~68Hb 16.89RUNEOCPI41
     P20ODuY  C2019 06 08.24022015 56 21.23 +52 44 40.5    ~68Hb 16.89RUNEOCPI41
     P20ODuY  C2019 06 08.26157415 50 12.93 +53 45 55.1    ~68Hb 16.76RUNEOCPI41
     P20ODuY  C2019 06 08.26192115 50 06.55 +53 46 56.7    ~68Hb 16.76RUNEOCPI41
     P20ODuY  C2019 06 08.28942415 41 05.57 +55 08 40.5    ~68Iq 16.60RUNEOCPI41
     P20ODuY  C2019 06 08.28977115 40 58.00 +55 09 46.1    ~68Iq 16.60RUNEOCPI41
     P20ODuY  C2019 06 08.30642015 34 48.91 +56 00 35.7    ~68Iq 17.08gUNEOCPI41
     P20ODuY  C2019 06 08.30676715 34 40.74 +56 01 40.9    ~68Iq 17.08gUNEOCPI41

Station data:
(104) San Marcello Pistoiese  (N44.063037 E10.804200)  Italy. 0.40-m f/5
   reflector.
(595) Farra d'Isonzo  (N45.915734 E13.525780)  Italy.  Observers L.
   Bittesini, F. Fabris, E. Pettarin, F. Piani. Measurer E. Pettarin. 0.30-m
   f/4.5 reflector + CCD.
(958) Observatoire de Dax  (N43.693327 W1.030390)  France.
(C95) SATINO Remote Observatory, Haute Provence  (N43.932042 E5.712390)
   France. 0.60-m f/3.2 Newtonian reflector + CCD.
(F52) Pan-STARRS 2, Haleakala  (N20.707384 W156.255910)  US/Hawaii. 1.8-m
   Ritchey-Chrétien + CCD.
(H21) Astronomical Research Observatory, Westfield  (N39.483057 W87.968270)
   US/Illinois. 0.76-m f/3.0 astrograph + CCD.
(I41) Palomar Mountain--ZTF  (N33.357340 W116.859780)  US/California. 1.2-m
   f/2.44 Oschin Schmidt + CCD.
(I52) Steward Observatory, Mt. Lemmon Station  (N32.442547 W110.788920)
   US/Arizona.  Observers T. A. Pruyne, B. M. Africano, E. J. Christensen, G.
   A. Farneth, D. C. Fuls, A. R. Gibbs, A. D. Grauer, H. Groeller, J. A.
   Johnson, R. A. Kowalski, S. M. Larson, G. J. Leonard, R. L. Seaman, F. C.
   Shelly. 1.0-m reflector + CCD.
(I93) St Pardon de Conques  (N44.558710 W0.203000)  France.  Observer F.
   Losse. 0.40-m f/3.7 reflector + CCD.
(K88) GINOP-KHK, Piszkéstető  (N47.917622 E19.893600)  Hungary.  Observer K.
   Sárneczky. 0.60-m Schmidt + CCD.
(L01) Višnjan Observatory, Tičan  (N45.290900 E13.749300)  Croatia.
   Observers K. Korlević, E. Pettarin. Measurer E. Pettarin. 1.0-m f/2.9
   reflector + CCD.
(L34) Galhassin Robotic Telescope, Isnello  (N37.939361 E14.020610)  Italy.

Orbital elements:  P20ODuY
   Perigee 2019 Jun 8.711061 +/- 7.22e-6 TT = 17:03:55 (JD 2458643.211061)
Epoch 2019 Jun  8.0 TT = JDT 2458642.5                        AutoNEOCP
q248058.937 +/- 35.9                (J2000 equator)
H   27.4  G 0.15                    Peri.  114.68567 +/- 0.00051
                                    Node   271.62972 +/- 0.00011
e  46.9337023 +/- 0.0197            Incl.  112.58848 +/- 0.000046
From 64 observations 2019 May 31-June 8; mean residual 0".59
Residuals in arcseconds: 
190531 F52  .24-  .34-    190607 104  .42+  .38-    190607 595  .21+  .71+    
190531 F52  .17-  .08+    190607 K88  .09+  .12+    190607 595  .16-  .95+    
190602 F52  .18-  .09-    190607 104  .38+  .61-    190607 L34  .25+  .97+    
190602 F52  .16+  .20-    190607 K88  .20+  .04+    190607 C95  .94-  .20+    
190602 F52  .05-  .05+    190607 104  .12+  .02-    190607 C95  .32-  .55+    
190605 F52  .21-  .24+    190607 K88  .36+  .47-    190607 C95  .43-  .24-    
190605 F52  .01+  .04+    190607 L34  .05-  .01-    190608 H21  .12+  .26-    
190605 F52  .14-  .25+    190607 958  .82-  1.6+    190608 H21  .16+  .29-    
190607 I41  .21+  .68+    190607 958  1.2-  1.4+    190608 H21  .36+  .42-    
190607 I41  .28+  .59+    190607 958  1.1-  .10+    190608 H21  .04-  .16-    
190607 I41  1.9+  .70-    190607 I93  .02+  .24-    190608 H21  .04+  .27-    
190607 I41  .87+  .34-    190607 958  .39-  .54+    190608 H21  .08-  .25-    
190607 I52  .01+  .15+    190607 L01  .02+  .04+    190608 I41  .35-  .91+    
190607 I52  .09+  .28-    190607 L01  .16+  .10+    190608 I41  .03+  .77+    
190607 I52  .08-  .32-    190607 I93  .10+  .25-    190608 I41  .66+  1.2-    
190607 I52  .24+  .07-    190607 L01  .01-  .17-    190608 I41  .26+  .32-    
190607 I52  .08+  .19-    190607 L01  .02+  .16-    190608 I41  1.6+  2.1-    
190607 I52  .07+  .16-    190607 L01  .28-  .16-    190608 I41  .25-  .53+    
190607 I52  .18-  .09-    190607 L01  .11-  .18-    190608 I41  1.9+  2.0-    
190607 I52  .31-  .26-    190607 L01  .10-  .14+    190608 I41  .97+  .94-    
190607 L34  .20+  1.0-    190607 I93  .07+  .14-    
190607 104  .49+  .59-    190607 595  .20-  .54+    

Ephemerides (geocentric):
Date (UTC) HH   RA              Dec         delta   r     elong  mag " sig PA
---- -- -- --  -------------   -----------  ------ ------ -----  --- ---- ---
2019 06 17 11  05 27 56.757   -21 27 22.76  .04365 .98550  44.9 26?? 3.61  24
2019 06 17 12  05 27 55.600   -21 27 45.47  .04386 .98536  45.0 26?? 3.61  24
2019 06 17 13  05 27 54.455   -21 28 07.80  .04407 .98523  45.0 26?? 3.61  24
2019 06 17 14  05 27 53.321   -21 28 29.75  .04428 .98510  45.0 26?? 3.61  24
2019 06 17 15  05 27 52.199   -21 28 51.33  .04449 .98497  45.0 26?? 3.61  24
2019 06 17 16  05 27 51.088   -21 29 12.54  .04469 .98483  45.0 26?? 3.61  24
2019 06 17 17  05 27 49.988   -21 29 33.38  .04490 .98470  45.0 26?? 3.61  24
2019 06 17 18  05 27 48.900   -21 29 53.87  .04511 .98457  45.0 26?? 3.61  24
2019 06 17 19  05 27 47.822   -21 30 14.01  .04532 .98443  45.0 26?? 3.61  24
